Location: Chuathbaluk
(61.5726°N, 159.2454°W)
Time: 14:17:48
(UTC+00:00)

ZACube-1 - Pass Details

Date: 17 January 2021
Orbit: 583 x 666 km, 97.6° (Epoch: 01 March)

Event Time Altitude Azimuth Distance (km) Brightness Sun altitude
Rises 15:29:58 0° 18° (NNE) 3,020 ? -27.2°
Reaches altitude 10° 15:32:19 10° 25° (NNE) 2,106 ? -26.9°
Maximum altitude 15:36:44 43° 97° (E) 938 ? -26.4°
Drops below altitude 10° 15:41:06 10° 170° (S) 2,087 ? -25.9°
Sets 15:43:24 0° 177° (S) 2,990 ? -25.6°
